• In Kazakhstan
  • List of Countries
  • For 7 days
  • Water Temperature
  • Weather Map
  • News
  • Weather Widgets
  • user-avatar
    Login

    Hourly Weather Newcastle

    Today, 13 November, Wednesday

    Time Temperature Precipitation Wind Pressure Humidity
    00:00 +17°C° 0 mm 6 mps 756 mmHg 75%
    01:00 +16°C° 0 mm 6 mps 756 mmHg 78%
    02:00 +15°C° 0 mm 5 mps 757 mmHg 81%
    03:00 +14°C° 0 mm 4 mps 757 mmHg 83%
    04:00 +13°C° 0 mm 4 mps 758 mmHg 85%
    05:00 +14°C° 0 mm 4 mps 758 mmHg 76%
    06:00 +16°C° 0 mm 5 mps 759 mmHg 67%
    07:00 +17°C° 0 mm 5 mps 759 mmHg 58%
    08:00 +19°C° 0 mm 5 mps 759 mmHg 48%
    09:00 +21°C° 0 mm 5 mps 759 mmHg 38%
    10:00 +22°C° 0 mm 4 mps 759 mmHg 28%
    11:00 +23°C° 0 mm 4 mps 758 mmHg 26%
    12:00 +25°C° 0 mm 4 mps 758 mmHg 25%
    13:00 +25°C° 0 mm 5 mps 758 mmHg 23%
    14:00 +23°C° 0 mm 4 mps 758 mmHg 30%
    15:00 +22°C° 0 mm 4 mps 757 mmHg 37%
    16:00 +21°C° 0 mm 4 mps 757 mmHg 44%
    17:00 +18°C° 0 mm 3 mps 757 mmHg 52%
    18:00 +16°C° 0 mm 3 mps 758 mmHg 60%
    19:00 +14°C° 0 mm 2 mps 759 mmHg 68%
    20:00 +14°C° 0 mm 2 mps 760 mmHg 72%
    21:00 +13°C° 0 mm 2 mps 760 mmHg 75%
    22:00 +12°C° 0 mm 2 mps 761 mmHg 79%
    23:00 +12°C° 0 mm 2 mps 760 mmHg 77%

    Tomorrow, 14 November, Thursday

    Time Temperature Precipitation Wind Pressure Humidity
    00:00 +12°C° 0 mm 2 mps 760 mmHg 76%
    01:00 +10°C° 0 mm 2 mps 760 mmHg 74%
    02:00 +10°C° 0 mm 2 mps 760 mmHg 69%
    03:00 +10°C° 0 mm 2 mps 760 mmHg 63%
    04:00 +10°C° 0 mm 2 mps 760 mmHg 58%
    05:00 +13°C° 0 mm 2 mps 760 mmHg 51%
    06:00 +15°C° 0 mm 2 mps 761 mmHg 45%
    07:00 +17°C° 0 mm 2 mps 761 mmHg 38%
    08:00 +20°C° 0 mm 2 mps 761 mmHg 35%
    09:00 +23°C° 0 mm 2 mps 761 mmHg 31%
    10:00 +26°C° 0 mm 2 mps 761 mmHg 28%
    11:00 +27°C° 0 mm 2 mps 760 mmHg 27%
    12:00 +27°C° 0 mm 3 mps 760 mmHg 27%
    13:00 +28°C° 0 mm 3 mps 759 mmHg 27%
    14:00 +27°C° 0 mm 4 mps 758 mmHg 31%
    15:00 +26°C° 0 mm 4 mps 758 mmHg 35%
    16:00 +25°C° 0 mm 5 mps 758 mmHg 39%
    17:00 +22°C° 0 mm 5 mps 758 mmHg 46%
    18:00 +20°C° 0 mm 5 mps 758 mmHg 54%
    19:00 +17°C° 0 mm 5 mps 759 mmHg 61%
    20:00 +17°C° 0 mm 4 mps 759 mmHg 63%
    21:00 +16°C° 0 mm 3 mps 759 mmHg 66%
    22:00 +15°C° 0 mm 2 mps 759 mmHg 68%
    23:00 +15°C° 0 mm 2 mps 759 mmHg 68%

    Day after tomorrow, 15 November, Friday

    Time Temperature Precipitation Wind Pressure Humidity
    00:00 +14°C° 0 mm 2 mps 759 mmHg 68%
    01:00 +14°C° 0 mm 2 mps 759 mmHg 67%
    02:00 +14°C° 0 mm 2 mps 759 mmHg 65%
    03:00 +13°C° 0 mm 3 mps 759 mmHg 63%
    04:00 +13°C° 0 mm 3 mps 759 mmHg 61%
    05:00 +16°C° 0 mm 3 mps 759 mmHg 56%
    06:00 +18°C° 0 mm 3 mps 759 mmHg 50%
    07:00 +20°C° 0 mm 4 mps 759 mmHg 45%
    08:00 +23°C° 0 mm 4 mps 759 mmHg 39%
    09:00 +26°C° 0 mm 4 mps 759 mmHg 33%
    10:00 +29°C° 0 mm 4 mps 758 mmHg 27%
    11:00 +30°C° 0 mm 4 mps 758 mmHg 24%
    12:00 +33°C° 0 mm 4 mps 757 mmHg 21%
    13:00 +34°C° 0 mm 4 mps 756 mmHg 19%
    14:00 +34°C° 0 mm 5 mps 756 mmHg 19%
    15:00 +34°C° 0 mm 6 mps 755 mmHg 18%
    16:00 +35°C° 0 mm 6 mps 755 mmHg 18%
    17:00 +32°C° 0 mm 5 mps 755 mmHg 22%
    18:00 +29°C° 0 mm 4 mps 756 mmHg 26%
    19:00 +26°C° 0 mm 3 mps 756 mmHg 31%
    20:00 +25°C° 0 mm 3 mps 756 mmHg 32%
    21:00 +24°C° 0 mm 3 mps 757 mmHg 34%
    22:00 +21°C° 0 mm 4 mps 758 mmHg 37%
    23:00 +20°C° 0 mm 4 mps 758 mmHg 48%

    16 November, Saturday

    Time Temperature Precipitation Wind Pressure Humidity
    00:00 +19°C° 0 mm 5 mps 758 mmHg 59%
    01:00 +17°C° 0 mm 6 mps 758 mmHg 70%
    02:00 +16°C° 0 mm 5 mps 758 mmHg 77%
    03:00 +15°C° 0 mm 4 mps 759 mmHg 84%
    04:00 +14°C° 0 mm 3 mps 759 mmHg 91%
    05:00 +17°C° 0 mm 3 mps 760 mmHg 84%
    06:00 +18°C° 0 mm 3 mps 760 mmHg 76%
    07:00 +20°C° 0 mm 3 mps 761 mmHg 68%
    08:00 +22°C° 0 mm 3 mps 760 mmHg 60%
    09:00 +25°C° 0 mm 2 mps 760 mmHg 51%
    10:00 +27°C° 0 mm 2 mps 760 mmHg 42%
    11:00 +27°C° 0 mm 3 mps 760 mmHg 42%
    12:00 +28°C° 0 mm 3 mps 759 mmHg 41%
    13:00 +28°C° 0 mm 4 mps 759 mmHg 40%
    14:00 +26°C° 0 mm 5 mps 758 mmHg 48%
    15:00 +25°C° 0 mm 5 mps 758 mmHg 55%
    16:00 +22°C° 0 mm 6 mps 758 mmHg 62%
    17:00 +21°C° 0 mm 5 mps 759 mmHg 67%
    18:00 +20°C° 0 mm 5 mps 760 mmHg 72%
    19:00 +19°C° 0 mm 4 mps 760 mmHg 77%
    20:00 +19°C° 0 mm 4 mps 761 mmHg 80%
    21:00 +18°C° 0 mm 4 mps 761 mmHg 84%
    22:00 +18°C° 0 mm 4 mps 762 mmHg 88%
    23:00 +18°C° 0 mm 4 mps 761 mmHg 90%

    17 November, Sunday

    Time Temperature Precipitation Wind Pressure Humidity
    00:00 +17°C° 0 mm 4 mps 761 mmHg 92%
    01:00 +17°C° 0 mm 4 mps 761 mmHg 94%
    02:00 +17°C° 0.1 mm 4 mps 760 mmHg 95%
    03:00 +17°C° 0.1 mm 4 mps 760 mmHg 95%
    04:00 +17°C° 0.1 mm 4 mps 760 mmHg 95%
    05:00 +18°C° 0.2 mm 4 mps 760 mmHg 92%
    06:00 +19°C° 0.2 mm 4 mps 760 mmHg 89%
    07:00 +20°C° 0.2 mm 4 mps 760 mmHg 86%
    08:00 +22°C° 0.2 mm 4 mps 760 mmHg 75%
    09:00 +25°C° 0.2 mm 4 mps 759 mmHg 63%
    10:00 +27°C° 0.2 mm 4 mps 759 mmHg 51%
    11:00 +27°C° 0.4 mm 4 mps 758 mmHg 56%
    12:00 +26°C° 0.4 mm 4 mps 758 mmHg 61%
    13:00 +25°C° 0.4 mm 4 mps 757 mmHg 66%
    14:00 +23°C° 1.2 mm 5 mps 758 mmHg 69%
    15:00 +22°C° 1.2 mm 6 mps 758 mmHg 72%
    16:00 +21°C° 1.2 mm 7 mps 758 mmHg 75%
    17:00 +20°C° 0.5 mm 6 mps 759 mmHg 81%
    18:00 +19°C° 0.5 mm 6 mps 760 mmHg 86%
    19:00 +17°C° 0.5 mm 6 mps 761 mmHg 91%
    20:00 +17°C° 1.4 mm 6 mps 761 mmHg 92%
    21:00 +16°C° 1.4 mm 5 mps 762 mmHg 93%
    22:00 +16°C° 1.4 mm 5 mps 762 mmHg 93%
    23:00 +16°C° 1 mm 5 mps 762 mmHg 93%

    18 November, Monday

    Time Temperature Precipitation Wind Pressure Humidity
    00:00 +17°C° 1 mm 4 mps 762 mmHg 93%
    01:00 +15°C° 1 mm 4 mps 761 mmHg 93%
    02:00 +15°C° 0.3 mm 4 mps 761 mmHg 93%
    03:00 +16°C° 0.3 mm 3 mps 761 mmHg 93%
    04:00 +14°C° 0.3 mm 3 mps 761 mmHg 93%
    05:00 +16°C° 0.4 mm 3 mps 762 mmHg 91%
    06:00 +17°C° 0.4 mm 4 mps 762 mmHg 89%
    07:00 +18°C° 0.4 mm 4 mps 763 mmHg 87%
    08:00 +19°C° 0.5 mm 4 mps 763 mmHg 85%
    09:00 +19°C° 0.5 mm 4 mps 763 mmHg 82%
    10:00 +20°C° 0.5 mm 4 mps 763 mmHg 80%
    11:00 +21°C° 0.2 mm 4 mps 762 mmHg 73%
    12:00 +22°C° 0.2 mm 4 mps 762 mmHg 66%
    13:00 +23°C° 0.2 mm 4 mps 761 mmHg 59%
    14:00 +22°C° 0 mm 4 mps 761 mmHg 58%
    15:00 +22°C° 0 mm 4 mps 760 mmHg 57%
    16:00 +22°C° 0 mm 4 mps 760 mmHg 57%
    17:00 +21°C° 0 mm 4 mps 760 mmHg 63%
    18:00 +19°C° 0 mm 4 mps 760 mmHg 70%
    19:00 +17°C° 0 mm 5 mps 761 mmHg 77%
    20:00 +17°C° 0 mm 4 mps 761 mmHg 80%
    21:00 +15°C° 0 mm 4 mps 761 mmHg 83%
    22:00 +15°C° 0 mm 4 mps 761 mmHg 85%
    23:00 +14°C° 0 mm 4 mps 761 mmHg 87%
    Show more